[TLELIST] Archives

 

Current TLEs

September 13th 2007 PST

HST 1 20580U 90037B 07254.68902259 +.00000342 +00000-0 +13644-4 0 09613 2 20580 028.4687 346.0401 0003623 293.3149 066.7059 15.00277551752960 ISS (ZARYA) 1 25544U 98067A 07255.82315875 .00012322 00000-0 78817-4 0 9690 2 25544 051.6366 011.6751 0008809 002.3368 137.4270 15.76764337504605 CXO 1 25867U 99040B 07254.91666667 .00000197 00000-0 10000-3 0 1112 2 25867 062.3313 087.3525 6354678 282.6891 357.9009 00.37805241 2570 ____________________________________________________________________ These 2-Line ...Continue Reading

Current TLEs

September 12th 2007 PST

HST 1 20580U 90037B 07253.69116845 +.00000353 +00000-0 +14523-4 0 09643 2 20580 028.4685 352.5469 0003655 281.7880 078.2297 15.00277258752812 ISS (ZARYA) 1 25544U 98067A 07255.49808975 .00012467 00000-0 79723-4 0 9676 2 25544 051.6371 013.3504 0008755 001.5580 091.7615 15.76756778504552 CXO 1 25867U 99040B 07254.91666667 .00000197 00000-0 10000-3 0 1112 2 25867 062.3313 087.3525 6354678 282.6891 357.9009 00.37805241 2570 ____________________________________________________________________ These 2-Line ...Continue Reading

Current TLEs

September 11th 2007 PST

HST 1 20580U 90037B 07251.56241368 .00000331 00000-0 12823-4 0 9564 2 20580 028.4683 006.4282 0003809 259.0198 100.9963 15.00276259752496 ISS (ZARYA) 1 25544U 98067A 07254.54110510 .00013107 00000-0 83687-4 0 9599 2 25544 051.6366 018.2854 0008665 358.6987 058.8422 15.76734265504406 CXO 1 25867U 99040B 07254.91666667 .00000197 00000-0 10000-3 0 1112 2 25867 062.3313 087.3525 6354678 282.6891 357.9009 00.37805241 2570 ____________________________________________________________________ These 2-Line ...Continue Reading

Current TLEs

September 10th 2007 PST

HST 1 20580U 90037B 07251.56241368 .00000331 00000-0 12823-4 0 9564 2 20580 028.4683 006.4282 0003809 259.0198 100.9963 15.00276259752496 ISS (ZARYA) 1 25544U 98067A 07253.52412622 .00014846 00000-0 94319-4 0 9534 2 25544 051.6371 023.5284 0008682 353.2936 047.7888 15.76712525504242 CXO 1 25867U 99040B 07252.29166667 .00000148 00000-0 10000-3 0 1101 2 25867 062.3226 087.4181 6350745 282.7376 000.4915 00.37803070 2565 ____________________________________________________________________ These 2-Line ...Continue Reading

Current TLEs

September 9th 2007 PST

HST 1 20580U 90037B 07250.49803622 .00000303 00000-0 10594-4 0 9553 2 20580 028.4681 013.3687 0003901 247.9232 112.0938 15.00275672752335 ISS (ZARYA) 1 25544U 98067A 07251.36990321 .00016489 00000-0 10457-3 0 9424 2 25544 051.6365 034.6354 0008625 345.0972 060.2578 15.76650530503907 CXO 1 25867U 99040B 07252.29166667 .00000148 00000-0 10000-3 0 1101 2 25867 062.3226 087.4181 6350745 282.7376 000.4915 00.37803070 2565 ____________________________________________________________________ These 2-Line ...Continue Reading

Current TLEs

September 8th 2007 PST

HST 1 20580U 90037B 07250.49803622 .00000303 00000-0 10594-4 0 9553 2 20580 028.4681 013.3687 0003901 247.9232 112.0938 15.00275672752335 ISS (ZARYA) 1 25544U 98067A 07251.36990321 .00016489 00000-0 10457-3 0 9424 2 25544 051.6365 034.6354 0008625 345.0972 060.2578 15.76650530503907 CXO 1 25867U 99040B 07252.29166667 .00000148 00000-0 10000-3 0 1101 2 25867 062.3226 087.4181 6350745 282.7376 000.4915 00.37803070 2565 ____________________________________________________________________ These 2-Line ...Continue Reading

Current TLEs

September 7th 2007 PST

HST 1 20580U 90037B 07248.76842281 +.00000343 +00000-0 +13721-4 0 09632 2 20580 028.4678 024.6464 0003908 230.0156 130.0093 15.00275322752079 ISS (ZARYA) 1 25544U 98067A 07250.49337940 .00016222 00000-0 10309-3 0 9374 2 25544 051.6354 039.1525 0008586 341.2535 125.6861 15.76619516503768 CXO 1 25867U 99040B 07249.58333333 .00000098 00000-0 10000-3 0 1097 2 25867 062.3188 087.4735 6345872 282.8123 351.7340 00.37798799 2557 ____________________________________________________________________ These 2-Line ...Continue Reading

Current TLEs

September 6th 2007 PST

HST 1 20580U 90037B 07249.43365858 .00000345 00000-0 13873-4 0 9547 2 20580 028.4678 020.3096 0003918 237.0242 122.9970 15.00275578752175 ISS (ZARYA) 1 25544U 98067A 07249.34734486 .00016536 00000-0 10518-3 0 9305 2 25544 051.6356 045.0635 0008528 337.1420 100.7838 15.76582181503586 CXO 1 25867U 99040B 07249.58333333 .00000098 00000-0 10000-3 0 1097 2 25867 062.3188 087.4735 6345872 282.8123 351.7340 00.37798799 2557 ____________________________________________________________________ These 2-Line ...Continue Reading

Current TLEs

September 5th 2007 PST

HST 1 20580U 90037B 07247.83709252 .00000340 00000-0 13519-4 0 9530 2 20580 028.4679 030.7196 0003943 220.5921 139.4373 15.00274982751932 ISS (ZARYA) 1 25544U 98067A 07248.52986472 .00016132 00000-0 10285-3 0 9244 2 25544 051.6355 049.2762 0008454 333.4624 141.5963 15.76552475503456 CXO 1 25867U 99040B 07246.95833333 .00000132 00000-0 10000-3 0 1088 2 25867 062.3046 087.5299 6343627 282.8848 354.3131 00.37800726 2546 ____________________________________________________________________ These 2-Line ...Continue Reading

Current TLEs

September 4th 2007 PST

HST 1 20580U 90037B 07245.84138469 +.00000349 +00000-0 +14192-4 0 09644 2 20580 028.4675 043.7331 0003951 200.6995 159.3435 15.00274285751635 ISS (ZARYA) 1 25544U 98067A 07247.51305353 .00015068 00000-0 96511-4 0 9182 2 25544 051.6360 054.5179 0008257 329.1059 131.1050 15.76514740503295 CXO 1 25867U 99040B 07246.95833333 .00000132 00000-0 10000-3 0 1088 2 25867 062.3046 087.5299 6343627 282.8848 354.3131 00.37800726 2546 ____________________________________________________________________ These 2-Line ...Continue Reading
  • This mailing list is a public mailing list - anyone may join or leave, at any time.
  • This mailing list is announce-only.

International Space Station (ISS) / Hubble Space Telescope (HST) / Chandra X-Ray Observatory Orbital Data via EMAIL

Privacy Policy:

Private list